Starlink 33782

operational
NORAD ID: 64332 Int'l Des: 2025-124 Owner: SPXS Country: US Constellation: starlink
LEOCIRCULAR

About Starlink 33782

Description loading...

Live Position

Loading 3D Globe...

Upcoming Passes

Altitude History

Altitude vs Time

uPlot chart will show altitude changes over time

Two-Line Element Set

1 64332U 25124R 25306.46009921 .00026246 00000-0 95966-3 0 9997
2 64332 42.9990 120.1173 0000228 273.8179 86.2647 15.27587723 22326
Epoch: Nov 2, 2025 • Age: 34 hours

Current Status

Altitude 483.6 km
Velocity 7.63 km/s
Sub-Earth Point 30.69°N, 98.95°W
Launch Date Jun 10, 2025
Age 0.3 years
Type internet

Technical Details

Classification Payload
Mass 575.00 kg
Dry Mass 530.00 kg
Total Mass 575.00 kg
Length 0.30 m
Diameter 4.10 m
Span 29.00 m
Shape Box + pan
Manufacturer SPXS
Bus Type Starlink V2MO
Phase Status In Orbit
Owner/State SPXS/US

Large Constellations

Loading constellations...